When you browse on this site, cookies collect data to enhance your experience and personalize the content and advertising you see.
Visit our Privacy Policy to learn more. By continuing to use the site, you agree to this use of cookies and data.
  • în România
  • Lista ţărilor
  • Pe 7 zile
  • Temperatura apei
  • Hartă satelitară
  • Meteo pe hartă
  • Widget-uri
  • user-avatar
    Intrare

    Meteo pe oră la Bakhtaran

    Astăzi, 21 Ianuarie, Luni

    Timp Temperatura Precipitaţii Vânt Presiune Umiditate
    00:00 -2°C° 0 mm 0 m/s 637 mmHg 56%
    01:00 -2°C° 0 mm 0 m/s 637 mmHg 55%
    02:00 -2°C° 0 mm 0 m/s 637 mmHg 55%
    03:00 -1°C° 0 mm 1 m/s 637 mmHg 55%
    04:00 -1°C° 0 mm 1 m/s 637 mmHg 55%
    05:00 -1°C° 0 mm 1 m/s 637 mmHg 54%
    06:00 -1°C° 0 mm 1 m/s 637 mmHg 54%
    07:00 0°C° 0 mm 1 m/s 637 mmHg 50%
    08:00 +1°C° 0 mm 1 m/s 637 mmHg 46%
    09:00 +2°C° 0 mm 1 m/s 638 mmHg 42%
    10:00 +3°C° 0 mm 1 m/s 638 mmHg 38%
    11:00 +4°C° 0 mm 0 m/s 637 mmHg 34%
    12:00 +5°C° 0 mm 0 m/s 637 mmHg 29%
    13:00 +5°C° 0 mm 0 m/s 637 mmHg 30%
    14:00 +5°C° 0 mm 0 m/s 637 mmHg 30%
    15:00 +6°C° 0 mm 0 m/s 636 mmHg 30%
    16:00 +4°C° 0 mm 0 m/s 636 mmHg 34%
    17:00 +3°C° 0 mm 0 m/s 635 mmHg 38%
    18:00 +2°C° 0 mm 0 m/s 635 mmHg 41%
    19:00 +1°C° 0 mm 0 m/s 635 mmHg 41%
    20:00 +1°C° 0 mm 0 m/s 635 mmHg 41%
    21:00 +1°C° 0 mm 0 m/s 635 mmHg 41%
    22:00 +1°C° 0 mm 0 m/s 635 mmHg 41%
    23:00 +1°C° 0 mm 0 m/s 635 mmHg 41%

    Mâine, 22 Ianuarie, Marţi

    Timp Temperatura Precipitaţii Vânt Presiune Umiditate
    00:00 +1°C° 0 mm 0 m/s 635 mmHg 41%
    01:00 0°C° 0 mm 0 m/s 635 mmHg 41%
    02:00 0°C° 0 mm 0 m/s 634 mmHg 41%
    03:00 0°C° 0 mm 0 m/s 634 mmHg 41%
    04:00 0°C° 0 mm 0 m/s 634 mmHg 42%
    05:00 0°C° 0 mm 0 m/s 634 mmHg 42%
    06:00 0°C° 0 mm 0 m/s 634 mmHg 43%
    07:00 +1°C° 0 mm 0 m/s 635 mmHg 41%
    08:00 +3°C° 0 mm 1 m/s 635 mmHg 39%
    09:00 +4°C° 0 mm 1 m/s 636 mmHg 37%
    10:00 +5°C° 0 mm 1 m/s 636 mmHg 34%
    11:00 +6°C° 0 mm 1 m/s 636 mmHg 31%
    12:00 +7°C° 0 mm 1 m/s 635 mmHg 28%
    13:00 +7°C° 0 mm 1 m/s 635 mmHg 28%
    14:00 +7°C° 0 mm 2 m/s 635 mmHg 27%
    15:00 +7°C° 0 mm 2 m/s 635 mmHg 27%
    16:00 +6°C° 0 mm 1 m/s 635 mmHg 31%
    17:00 +5°C° 0 mm 1 m/s 634 mmHg 35%
    18:00 +4°C° 0 mm 1 m/s 634 mmHg 39%
    19:00 +3°C° 0 mm 1 m/s 634 mmHg 40%
    20:00 +3°C° 0 mm 1 m/s 634 mmHg 41%
    21:00 +2°C° 0 mm 1 m/s 635 mmHg 42%
    22:00 +2°C° 0 mm 1 m/s 635 mmHg 43%
    23:00 +1°C° 0 mm 0 m/s 635 mmHg 43%

    Poimâine, 23 Ianuarie, Miercuri

    Timp Temperatura Precipitaţii Vânt Presiune Umiditate
    00:00 +1°C° 0 mm 0 m/s 635 mmHg 44%
    01:00 0°C° 0 mm 0 m/s 635 mmHg 44%
    02:00 0°C° 0 mm 0 m/s 635 mmHg 44%
    03:00 0°C° 0 mm 0 m/s 635 mmHg 45%
    04:00 0°C° 0 mm 0 m/s 635 mmHg 45%
    05:00 0°C° 0 mm 0 m/s 635 mmHg 45%
    06:00 0°C° 0 mm 0 m/s 635 mmHg 45%
    07:00 +1°C° 0 mm 0 m/s 635 mmHg 42%
    08:00 +2°C° 0 mm 0 m/s 636 mmHg 39%
    09:00 +3°C° 0 mm 0 m/s 637 mmHg 36%
    10:00 +4°C° 0 mm 0 m/s 637 mmHg 36%
    11:00 +6°C° 0 mm 1 m/s 637 mmHg 36%
    12:00 +7°C° 0 mm 1 m/s 637 mmHg 36%
    13:00 +8°C° 0 mm 1 m/s 637 mmHg 36%
    14:00 +8°C° 0 mm 1 m/s 637 mmHg 36%
    15:00 +8°C° 0 mm 1 m/s 637 mmHg 36%
    16:00 +7°C° 0 mm 1 m/s 636 mmHg 41%
    17:00 +6°C° 0 mm 1 m/s 636 mmHg 46%
    18:00 +3°C° 0 mm 0 m/s 636 mmHg 51%
    19:00 +3°C° 0 mm 0 m/s 636 mmHg 52%
    20:00 +3°C° 0 mm 0 m/s 636 mmHg 53%
    21:00 +2°C° 0 mm 0 m/s 637 mmHg 55%
    22:00 +2°C° 0 mm 0 m/s 637 mmHg 55%
    23:00 +2°C° 0 mm 0 m/s 637 mmHg 56%

    24 Ianuarie, Joi

    Timp Temperatura Precipitaţii Vânt Presiune Umiditate
    00:00 +1°C° 0 mm 0 m/s 637 mmHg 57%
    01:00 +1°C° 0 mm 0 m/s 637 mmHg 57%
    02:00 +1°C° 0 mm 0 m/s 636 mmHg 58%
    03:00 +1°C° 0 mm 0 m/s 636 mmHg 58%
    04:00 +1°C° 0 mm 0 m/s 636 mmHg 58%
    05:00 +1°C° 0 mm 0 m/s 636 mmHg 58%
    06:00 0°C° 0 mm 0 m/s 637 mmHg 59%
    07:00 +2°C° 0 mm 0 m/s 637 mmHg 54%
    08:00 +4°C° 0 mm 1 m/s 638 mmHg 49%
    09:00 +5°C° 0 mm 1 m/s 639 mmHg 45%
    10:00 +7°C° 0 mm 1 m/s 639 mmHg 42%
    11:00 +8°C° 0 mm 1 m/s 639 mmHg 39%
    12:00 +9°C° 0 mm 1 m/s 639 mmHg 36%
    13:00 +9°C° 0 mm 1 m/s 639 mmHg 34%
    14:00 +10°C° 0 mm 1 m/s 639 mmHg 33%
    15:00 +10°C° 0 mm 1 m/s 638 mmHg 31%
    16:00 +9°C° 0 mm 1 m/s 638 mmHg 36%
    17:00 +7°C° 0 mm 1 m/s 637 mmHg 40%
    18:00 +5°C° 0 mm 0 m/s 637 mmHg 44%
    19:00 +5°C° 0 mm 0 m/s 637 mmHg 45%
    20:00 +5°C° 0 mm 1 m/s 638 mmHg 46%
    21:00 +5°C° 0 mm 1 m/s 638 mmHg 47%
    22:00 +4°C° 0 mm 1 m/s 638 mmHg 48%
    23:00 +4°C° 0 mm 1 m/s 637 mmHg 49%

    25 Ianuarie, Vineri

    Timp Temperatura Precipitaţii Vânt Presiune Umiditate
    00:00 +4°C° 0 mm 1 m/s 637 mmHg 51%
    01:00 +4°C° 0 mm 1 m/s 637 mmHg 51%
    02:00 +3°C° 0 mm 1 m/s 637 mmHg 52%
    03:00 +3°C° 0 mm 1 m/s 637 mmHg 53%
    04:00 +3°C° 0 mm 1 m/s 637 mmHg 53%
    05:00 +3°C° 0 mm 1 m/s 637 mmHg 53%
    06:00 +2°C° 0 mm 2 m/s 637 mmHg 53%
    07:00 +5°C° 0 mm 1 m/s 637 mmHg 49%
    08:00 +6°C° 0 mm 1 m/s 638 mmHg 45%
    09:00 +7°C° 0 mm 1 m/s 639 mmHg 41%
    10:00 +8°C° 0 mm 1 m/s 639 mmHg 37%
    11:00 +9°C° 0 mm 2 m/s 639 mmHg 33%
    12:00 +10°C° 0 mm 2 m/s 639 mmHg 29%
    13:00 +12°C° 0 mm 2 m/s 638 mmHg 28%
    14:00 +12°C° 0 mm 2 m/s 638 mmHg 28%
    15:00 +13°C° 0 mm 2 m/s 638 mmHg 28%
    16:00 +10°C° 0 mm 2 m/s 638 mmHg 31%
    17:00 +9°C° 0 mm 2 m/s 637 mmHg 34%
    18:00 +8°C° 0 mm 2 m/s 637 mmHg 38%
    19:00 +7°C° 0 mm 2 m/s 637 mmHg 39%
    20:00 +7°C° 0 mm 2 m/s 637 mmHg 40%
    21:00 +6°C° 0 mm 2 m/s 637 mmHg 41%
    22:00 +6°C° 0 mm 2 m/s 637 mmHg 42%
    23:00 +5°C° 0 mm 2 m/s 636 mmHg 43%

    26 Ianuarie, Sâmbătă

    Timp Temperatura Precipitaţii Vânt Presiune Umiditate
    00:00 +5°C° 0 mm 2 m/s 636 mmHg 45%
    01:00 +4°C° 0 mm 2 m/s 636 mmHg 46%
    02:00 +4°C° 0 mm 2 m/s 636 mmHg 46%
    03:00 +4°C° 0 mm 2 m/s 636 mmHg 47%
    04:00 +3°C° 0 mm 2 m/s 636 mmHg 47%
    05:00 +3°C° 0 mm 2 m/s 636 mmHg 47%
    06:00 +3°C° 0 mm 2 m/s 636 mmHg 46%
    07:00 +4°C° 0 mm 2 m/s 636 mmHg 43%
    08:00 +5°C° 0 mm 2 m/s 637 mmHg 40%
    09:00 +6°C° 0 mm 2 m/s 637 mmHg 36%
    10:00 +8°C° 0 mm 2 m/s 638 mmHg 34%
    11:00 +10°C° 0 mm 3 m/s 638 mmHg 32%
    12:00 +11°C° 0 mm 3 m/s 638 mmHg 30%
    13:00 +12°C° 0 mm 3 m/s 638 mmHg 31%
    14:00 +13°C° 0 mm 3 m/s 638 mmHg 31%
    15:00 +13°C° 0 mm 4 m/s 637 mmHg 32%
    16:00 +12°C° 0 mm 3 m/s 637 mmHg 36%
    17:00 +10°C° 0 mm 3 m/s 637 mmHg 41%
    18:00 +9°C° 0 mm 3 m/s 636 mmHg 45%
    19:00 +8°C° 0 mm 3 m/s 636 mmHg 46%
    20:00 +8°C° 0 mm 3 m/s 636 mmHg 47%
    21:00 +7°C° 0 mm 3 m/s 636 mmHg 48%
    22:00 +5°C° 0 mm 3 m/s 636 mmHg 48%
    23:00 +6°C° 0 mm 2 m/s 636 mmHg 49%
    Arată mai mult